Regional Weather Roundup
Issued by NWS

Home | Current Version | Previous Version | Text Only | Print | Product List | Glossary On
Versions: 1 2 3 4 5 6 7 8 9 10 11 12 13 14 15 16 17 18 19 20 21 22 23 24 25 26 27 28 29 30 31 32 33 34 35 36 37 38 39 40 41 42 43 44 45 46 47 48 49 50
413
ASUS44 KJAN 200610
RWRMS

MISSISSIPPI HOURLY WEATHER ROUNDUP
NATIONAL WEATHER SERVICE JACKSON MS
100 AM CDT MON OCT 20 2014

NOTE: "FAIR: INDICATES FEW OR NO CLOUDS BELOW 12,000 FEET WITH NO
SIGNIFICANT WEATHER AND/OR OBSTRUCTIONS TO VISIBILITY.

MSZ001>002-007>008-010>013-018>021-025>028-034>036-200700-
NORTHWEST MISSISSIPPI

CITY           SKY/WX    TMP DP  RH WIND       PRES   REMARKS
CLARKSDALE     FAIR      48  48 100 CALM      30.10F
CLEVELAND      FAIR      50  50  99 CALM      30.08F
GREENWOOD      CLEAR     49  47  93 NE3       30.09F
6HR MIN TEMP:  48; 6HR MAX TEMP:  58;

GREENVILLE     CLEAR     49  48  97 CALM      30.08F
6HR MIN TEMP:  49; 6HR MAX TEMP:  59;

GRENADA          N/A    N/A N/A N/A MISG        N/A
OLIVE BRANCH   CLEAR     48  48 100 CALM      30.09F
OXFORD         FAIR      45  43  93 CALM      30.11S
TUNICA         CLEAR     46  46 100 CALM      30.10F
$$

MSZ003>006-009-014>017-022>024-029>033-037>039-200700-
NORTHEAST MISSISSIPPI

CITY           SKY/WX    TMP DP  RH WIND       PRES   REMARKS
COLUMBUS AFB   CLEAR     46  46  99 CALM      30.09S
6HR MIN TEMP:  46; 6HR MAX TEMP:  58; 6HR PCP: TRACE;

CORINTH          N/A     45  43  93 CALM        N/A
GOLDN TRIANGLE CLEAR     46  43  87 W3        30.08F
TUPELO         CLEAR     49  46  90 CALM      30.09S
6HR MIN TEMP:  49; 6HR MAX TEMP:  59;

$$

MSZ040-058-200700-
CENTRAL MISSISSIPPI

CITY           SKY/WX    TMP DP  RH WIND       PRES   REMARKS
JACKSON INTL   CLEAR     49  46  90 CALM      30.08F
6HR MIN TEMP:  46; 6HR MAX TEMP:  60;

JACKSON HAWKNS CLEAR     51  47  86 CALM      30.08F
6HR MIN TEMP:  51; 6HR MAX TEMP:  65;

MERIDIAN KEY   CLEAR     47  45  93 CALM      30.08F
6HR MIN TEMP:  46; 6HR MAX TEMP:  57;

MERIDIAN NAS   CLEAR     49  46  90 CALM      30.09S
6HR MIN TEMP:  48; 6HR MAX TEMP:  61;

RAYMOND        HAZE      46  41  81 CALM      30.08F VSB 3/4
VICKSBURG      CLEAR     43  42  97 CALM      30.09F
6HR MIN TEMP:  43; 6HR MAX TEMP:  58;

$$

MSZ059>079-200700-
SOUTH MISSISSIPPI

CITY           SKY/WX    TMP DP  RH WIND       PRES   REMARKS
BROOKHAVEN     FAIR      48  48 100 CALM      30.09F
COLUMBIA         N/A    N/A N/A N/A MISG        N/A
HATTIESBURG    CLEAR     50  46  86 CALM      30.08F
6HR MIN TEMP:  49; 6HR MAX TEMP:  61;

MCCOMB         CLEAR     52  47  83 CALM      30.07F
6HR MIN TEMP:  51; 6HR MAX TEMP:  63;

NATCHEZ        CLEAR     50  46  87 CALM      30.08F
6HR MIN TEMP:  48; 6HR MAX TEMP:  61;

PINE BELT      CLEAR     48  43  81 CALM      30.08F
6HR MIN TEMP:  48; 6HR MAX TEMP:  57;

$$

MSZ080>082-200700-
COASTAL MISSISSIPPI

CITY           SKY/WX    TMP DP  RH WIND       PRES   REMARKS
BILOXI         CLEAR     60  51  73 N3        30.06F
6HR MIN TEMP:  57; 6HR MAX TEMP:  68;

PASCAGOULA     CLEAR     49  48  97 CALM      30.06S
6HR MIN TEMP:  47; 6HR MAX TEMP:  59;

GULFPORT       CLEAR     56  53  90 CALM      30.06S
6HR MIN TEMP:  56; 6HR MAX TEMP:  65;

$$



USA.gov is the U.S. government's official web portal to all federal, state and local government web resources and services.